User: anonymous   Login
Location: Bushey
(51.6333°N, 0.3667°W)
Time: 12:35:00
(UTC+00:00)
Language:

YAOGAN 1 - Orbit

View from above orbital plane
View from above orbital plane
View from above satellite
View from above satellite

Ground track
Ground track

The orbit data is extracted from the following two-line orbital elements,

1 29092U 06015A   21132.08416267  .00000058  00000-0  13618-4 0  9993
2 29092  97.9109 159.8179 0001472  92.2122 267.9260 14.83155452813542
Epoch (UTC): 12 May 2021 02:01:11
Eccentricity: 0.0001472
inclination: 97.9109°
perigee height: 618 km
apogee height: 620 km
right ascension of ascending node: 159.8179°
argument of perigee: 92.2122°
revolutions per day: 14.83155452
mean anomaly at epoch: 267.9260°
orbit number at epoch: 81354

The dashed part of the orbit path shows where the satellite is in the earth's shadow,  

DLR